[[{"header":{"parameterUnit":"m.s-1","parameterCategory":1,"la1":30.2991,"la2":30.254,"lo1":-89.0895,"lo2":-89.0444,"dy":0.0017,"dx":0.0017,"nx":28,"ny":28,"refTime":"2025-07-11T03:00:00:Z","depth":0,"parameterNumber":2,"parameterNumberName":"U-component_of_WINDS"},"data":[0,0,0,0,0,0,0,0,0,0,0,0,0,0,0,0,0,0,0,0,0,0,0,0,0,0,0,0,0,0,0,0,0,0,0,0,0,0,0,0,0,0,0,0,0,0,0,0,0,0,0,0,0,0,0,0,0,0,0.717,0.7171,0,0.7301,0.7303,0.7304,0.7313,0.7311,0.731,0.7309,0.7454,0.746,0.7465,0,0,0,0,0,0,0,0,0,0,0,0,0,0.6937,0.6942,0.717,0.7172,0.7173,0.7301,0.7303,0.7304,0.7313,0.7311,0.731,0.7308,0.7453,0.7459,0.7465,0,0,0,0,0,0,0,0,0,0,0,0,0,0.7051,0.6943,0.717,0.7193,0.7196,0.73,0.7303,0.7305,0.7314,0.7311,0.7309,0.7307,0.7451,0.7458,0.7466,0.756,0,0,0.749,0.7494,0,0,0,0,0,0,0,0,0.7044,0.7059,0.7188,0.7191,0.7195,0.7288,0.7274,0.7391,0.7314,0.7269,0.7309,0.7306,0.7402,0.7414,0.7443,0.7567,0.7573,0.7491,0.7496,0.7499,0.7502,0,0,0,0,0,0,0,0.7036,0.7054,0.7222,0.719,0.7194,0.72,0.7213,0.7296,0.7347,0.7273,0.7274,0.7289,0.7403,0.7436,0.7447,0.7575,0.7491,0.7498,0.7503,0.7506,0.7782,0.7785,0,0,0,0,0,0,0.7023,0.7047,0.7218,0.7226,0.7112,0.7206,0.7221,0.7261,0.7346,0.7357,0.7291,0.7289,0.7423,0.7438,0.7452,0.7567,0.7499,0.7507,0.7511,0.778,0.7783,0.7786,0,0,0,0,0,0,0.7018,0.7038,0.7213,0.7137,0.7159,0.7212,0.7257,0.7265,0.7297,0.7359,0.7369,0.7313,0.7422,0.7441,0.7532,0.7572,0.751,0.7517,0.7777,0.7781,0.7784,0.7798,0,0,0,0,0,0,0.7011,0.7036,0.707,0.7137,0.7163,0.7288,0.7259,0.7269,0.7309,0.7308,0.7383,0.7394,0.7422,0.752,0.754,0.7582,0.7524,0.7773,0.7778,0.7783,0.7794,0.7802,0.7808,0,0,0,0,0,0.7002,0.7071,0.7071,0.7092,0.7206,0.729,0.7305,0.7333,0.7312,0.7348,0.7388,0.7391,0.7564,0.753,0.7552,0.7597,0.7771,0.7777,0.7783,0.7791,0.78,0.7808,0,0,0,0,0,0,0.7012,0.7081,0.7082,0.7173,0.7225,0.7291,0.7337,0.7342,0.7404,0.74,0.7435,0.7452,0.7543,0.7579,0.7539,0.7692,0.7666,0.7677,0.7665,0.7674,0.7681,0.7671,0.753,0,0,0,0,0,0.7023,0.7082,0.7141,0.7216,0.7241,0.7285,0.7322,0.7338,0.7395,0.7418,0.7465,0.7523,0.759,0.7634,0.77,0.7799,0.7817,0.7842,0.7848,0.7854,0.7863,0.7918,0.793,0.7805,0.7805,0.7805,0,0,0.705,0.7095,0.7131,0.7219,0.7261,0.7324,0.7303,0.7371,0.7419,0.743,0.7517,0.7554,0.7621,0.7716,0.7761,0.775,0.7901,0.7861,0.7865,0.7872,0.7925,0.7937,0.7948,0.7809,0.7808,0.7807,0,0,0.7131,0.717,0.7236,0.7278,0.734,0.7368,0.7384,0.7449,0.7472,0.7559,0.7569,0.7628,0.7743,0.779,0.7829,0.7925,0.7931,0.7946,0.7984,0.8037,0.8047,0.8056,0.809,0.8102,0.7955,0.7955,0.7955,0,0.7157,0.7248,0.7271,0.7337,0.7377,0.7385,0.7454,0.7495,0.7577,0.7605,0.759,0.7734,0.778,0.7886,0.7909,0.794,0.7961,0.7938,0.8043,0.8052,0.8061,0.8094,0.8107,0.7956,0.7956,0.7956,0.7956,0,0.7278,0.7341,0.7388,0.7462,0.7506,0.7574,0.761,0.7653,0.7665,0.7696,0.7786,0.784,0.7916,0.7943,0.7958,0.8052,0.8042,0.8035,0.801,0.8074,0.8106,0.8119,0.7958,0.7958,0.7957,0.7957,0,0,0.7369,0.7452,0.7469,0.7502,0.7571,0.7622,0.7691,0.7761,0.7797,0.7854,0.7914,0.801,0.8002,0.8047,0.8067,0.8113,0.8186,0.81,0.8103,0.8114,0.8293,0.8298,0.8312,0.8189,0.8192,0.8194,0.8287,0,0.7457,0.7575,0.7597,0.7701,0.776,0.7768,0.7829,0.7879,0.7909,0.7966,0.8001,0.8068,0.8054,0.808,0.8127,0.8167,0.8222,0.816,0.8248,0.8251,0.823,0.8329,0.8335,0.842,0.83,0.8302,0.8304,0,0.7575,0.7629,0.7738,0.7797,0.7823,0.7876,0.7941,0.7995,0.8053,0.8072,0.812,0.8134,0.8208,0.8178,0.8282,0.824,0.8277,0.8302,0.8306,0.8316,0.8281,0.8342,0.8448,0.8461,0.8323,0.8322,0.832,0,0.763,0.7731,0.7809,0.7837,0.7908,0.7945,0.7977,0.8032,0.8072,0.8131,0.8158,0.8227,0.8264,0.8318,0.8351,0.8326,0.8453,0.8426,0.8472,0.8472,0.8499,0.8497,0.8614,0.8523,0.8523,0.8522,0.8522,0,0.7726,0.7793,0.7834,0.7882,0.7957,0.7983,0.8058,0.809,0.8138,0.8195,0.8208,0.8261,0.8301,0.8361,0.8388,0.847,0.8488,0.8506,0.8513,0.8505,0.8503,0.8531,0.8526,0.8526,0.8525,0.8525,0.8524,0,0.7801,0.7831,0.7916,0.7975,0.7991,0.8044,0.8096,0.8144,0.8173,0.8244,0.8263,0.831,0.8381,0.8419,0.8509,0.8527,0.8619,0.8622,0.8598,0.8601,0.8645,0.864,0.8784,0.8804,0.87,0.8701,0.8701,0,0.786,0.791,0.7973,0.8009,0.8041,0.81,0.814,0.8169,0.8211,0.8279,0.8319,0.839,0.8448,0.8561,0.8606,0.8675,0.868,0.8725,0.8691,0.8681,0.8681,0.8677,0.8682,0.8732,0.8733,0.8733,0.8734,0,0.7962,0.7973,0.8028,0.8089,0.8135,0.8185,0.8235,0.8265,0.8302,0.8349,0.8419,0.8463,0.8553,0.8623,0.8695,0.8732,0.874,0.8744,0.8759,0.8752,0.8735,0.8744,0.8615,0.8741,0.874,0.874,0.874,0.8739,0.8031,0.8075,0.8125,0.8186,0.8226,0.8271,0.8318,0.8352,0.841,0.8482,0.8496,0.857,0.8628,0.8724,0.8762,0.8823,0.8814,0.8835,0.8841,0.8846,0.8847,0.8725,0.8837,0.8836,0.8836,0.8836,0.8836,0,0.8133,0.8164,0.822,0.8287,0.8335,0.8334,0.8388,0.843,0.8494,0.8544,0.8599,0.868,0.8748,0.8797,0.8867,0.8906,0.8912,0.8924,0.8921,0.893,0.8851,0.8831,0.8918,0.8918,0.8918,0.8918,0.8918,0.8918,0.8191,0.8266,0.8284,0.8379,0.8412,0.8481,0.8513,0.8555,0.8595,0.8683,0.8738,0.8768,0.8819,0.8892,0.8955,0.8968,0.8993,0.9005,0.9018,0.8944,0.8935,0.8927,0.8909,0.901,0.901,0.9091,0.9092,0.9093]},{"header":{"parameterUnit":"m.s-1","parameterCategory":1,"la1":30.2991,"la2":30.254,"lo1":-89.0895,"lo2":-89.0444,"dy":0.0017,"dx":0.0017,"nx":28,"ny":28,"refTime":"2025-07-11T03:00:00:Z","depth":0,"parameterNumber":3,"parameterNumberName":"V-component_of_WINDS"},"data":[0,0,0,0,0,0,0,0,0,0,0,0,0,0,0,0,0,0,0,0,0,0,0,0,0,0,0,0,0,0,0,0,0,0,0,0,0,0,0,0,0,0,0,0,0,0,0,0,0,0,0,0,0,0,0,0,0,0,2.1101,2.1101,0,2.1038,2.1037,2.1036,2.0999,2.0999,2.0998,2.0998,2.0928,2.0926,2.0924,0,0,0,0,0,0,0,0,0,0,0,0,0,2.1185,2.1184,2.1102,2.1101,2.11,2.1038,2.1037,2.1036,2.0999,2.0999,2.0998,2.0998,2.0928,2.0926,2.0924,0,0,0,0,0,0,0,0,0,0,0,0,0,2.1138,2.1184,2.1102,2.1074,2.1071,2.1038,2.1037,2.1036,2.0999,2.0999,2.0998,2.0998,2.0929,2.0927,2.0924,2.0912,0,0,2.0916,2.0915,0,0,0,0,0,0,0,0,2.1141,2.1135,2.1079,2.1076,2.1072,2.1026,2.1041,2.0994,2.0999,2.1026,2.0998,2.0998,2.096,2.0955,2.0944,2.0909,2.0906,2.0916,2.0914,2.0913,2.0912,0,0,0,0,0,0,0,2.1144,2.1137,2.1076,2.1078,2.1074,2.1063,2.1056,2.1032,2.0995,2.1024,2.1021,2.1014,2.0958,2.0946,2.0942,2.0905,2.0916,2.0914,2.0912,2.0911,2.0855,2.0855,0,0,0,0,0,0,2.1152,2.114,2.1078,2.1074,2.1107,2.1061,2.1054,2.1041,2.0995,2.0988,2.1014,2.1012,2.0951,2.0945,2.0939,2.0921,2.0913,2.0911,2.0909,2.0855,2.0855,2.0855,0,0,0,0,0,0,2.1154,2.1147,2.1081,2.1106,2.1097,2.106,2.1046,2.104,2.1028,2.0988,2.0981,2.1009,2.095,2.0943,2.0919,2.0918,2.0909,2.0907,2.0855,2.0855,2.0855,2.0886,0,0,0,0,0,0,2.1157,2.1148,2.1145,2.1107,2.1096,2.1064,2.1046,2.1039,2.1024,2.1021,2.0981,2.0974,2.095,2.0923,2.0916,2.0914,2.0905,2.0855,2.0855,2.0855,2.0885,2.0887,2.0889,0,0,0,0,0,2.116,2.1156,2.1145,2.1138,2.1091,2.1064,2.1058,2.1031,2.1024,2.1019,2.0993,2.0976,2.0919,2.0921,2.0913,2.091,2.0855,2.0855,2.0855,2.0884,2.0887,2.0889,0,0,0,0,0,0,2.1193,2.115,2.1138,2.1121,2.1097,2.1058,2.1051,2.1035,2.1011,2.1009,2.0975,2.0966,2.0945,2.0925,2.0928,2.0895,2.0885,2.0883,2.091,2.0912,2.0914,2.0919,2.0903,0,0,0,0,0,2.1199,2.1182,2.1144,2.1133,2.1122,2.1089,2.1076,2.1057,2.103,2.1019,2.0991,2.0964,2.094,2.0925,2.09,2.0882,2.0871,2.0876,2.0878,2.088,2.0879,2.0866,2.0867,2.0856,2.0856,2.0856,0,0,2.121,2.1184,2.1176,2.1139,2.1118,2.11,2.108,2.1062,2.1047,2.1015,2.0992,2.097,2.0937,2.0916,2.0905,2.0898,2.088,2.088,2.0882,2.088,2.0866,2.0867,2.0868,2.0856,2.0856,2.0856,0,0,2.1221,2.12,2.1189,2.1168,2.1136,2.1114,2.1111,2.1074,2.1059,2.1035,2.1011,2.0991,2.0951,2.0928,2.0911,2.0911,2.0893,2.0904,2.0915,2.0903,2.0904,2.0904,2.0903,2.0904,2.0903,2.0903,2.0903,0,2.1239,2.1212,2.1184,2.1167,2.1151,2.1122,2.1108,2.1089,2.105,2.1039,2.1033,2.098,2.0956,2.0928,2.0928,2.0916,2.091,2.0909,2.0906,2.0906,2.0906,2.0905,2.0905,2.0905,2.0904,2.0904,2.0904,0,2.1234,2.1215,2.1209,2.1174,2.1157,2.1142,2.111,2.1095,2.1078,2.1055,2.103,2.0999,2.0968,2.096,2.0942,2.0929,2.0925,2.0913,2.0902,2.091,2.0908,2.0907,2.0907,2.0906,2.0906,2.0905,0,0,2.1266,2.1215,2.1213,2.1196,2.1158,2.1142,2.1124,2.1095,2.1083,2.1056,2.1039,2.1005,2.0993,2.0974,2.0952,2.0942,2.0942,2.093,2.0929,2.0933,2.0924,2.0934,2.0934,2.093,2.0929,2.0929,2.0927,0,2.1271,2.124,2.1214,2.1191,2.1173,2.1144,2.1128,2.1102,2.108,2.1059,2.1034,2.101,2.0996,2.0984,2.0972,2.0945,2.094,2.0945,2.0912,2.0911,2.0922,2.0933,2.0944,2.0943,2.0926,2.0926,2.0926,0,2.1274,2.125,2.1226,2.1189,2.118,2.1167,2.1136,2.1118,2.1086,2.1071,2.1049,2.1026,2.1004,2.0994,2.0961,2.0965,2.0949,2.0934,2.0933,2.0929,2.0919,2.0929,2.0942,2.0942,2.0924,2.0924,2.0925,0,2.1299,2.126,2.1241,2.1227,2.1183,2.1174,2.1155,2.1124,2.1107,2.108,2.1068,2.1038,2.1022,2.0998,2.0967,2.0963,2.0937,2.0925,2.0922,2.0923,2.0918,2.0919,2.0929,2.0908,2.0908,2.0908,2.0908,0,2.1307,2.1294,2.1251,2.1239,2.1222,2.1191,2.1174,2.1152,2.1124,2.1106,2.1078,2.1061,2.1022,2.0999,2.0974,2.095,2.0943,2.0928,2.0922,2.0931,2.0933,2.092,2.092,2.0908,2.0908,2.0908,2.0908,0,2.1333,2.1304,2.1281,2.1241,2.1231,2.122,2.1185,2.1171,2.1147,2.1124,2.1116,2.1078,2.105,2.1016,2.0977,2.096,2.0938,2.0928,2.0949,2.0945,2.0944,2.0944,2.0946,2.0944,2.0926,2.0926,2.0926,0,2.1341,2.133,2.1289,2.1275,2.1258,2.1236,2.1219,2.1186,2.1169,2.1132,2.1122,2.1092,2.1066,2.1022,2.0989,2.0958,2.0947,2.095,2.0942,2.0951,2.0947,2.0948,2.0946,2.0952,2.0953,2.0953,2.0953,0,2.1358,2.1343,2.1321,2.1293,2.1274,2.125,2.1224,2.1214,2.1176,2.1158,2.1129,2.111,2.1069,2.1039,2.1003,2.0981,2.096,2.0956,2.0953,2.0962,2.0975,2.0967,2.0955,2.0956,2.0956,2.0956,2.0955,2.0955,2.1374,2.1363,2.1332,2.1307,2.1285,2.1261,2.1246,2.122,2.1196,2.1162,2.1143,2.1115,2.1081,2.1032,2.101,2.0985,2.0978,2.0975,2.0974,2.0974,2.0976,2.0979,2.0979,2.0979,2.0979,2.0978,2.0978,0,2.1389,2.1368,2.1345,2.1311,2.1291,2.1274,2.1244,2.1228,2.1204,2.1175,2.1151,2.1117,2.1087,2.1051,2.1018,2.1005,2.0995,2.0998,2.0998,2.0993,2.0985,2.099,2.1007,2.1007,2.1007,2.1007,2.1007,2.1007,2.1395,2.1374,2.1356,2.1322,2.13,2.1274,2.1258,2.1235,2.1212,2.1176,2.1151,2.1129,2.1096,2.1061,2.1031,2.1021,2.101,2.1016,2.1003,2.0996,2.0994,2.0992,2.0996,2.1014,2.1014,2.1013,2.1013,2.1013]}]]